User: anonymous   Login
Location: Unspecified
(0.0000°N, 0.0000°E)
Time: 22:16:07
(UTC+00:00)
Language:

STARLINK-1020 - Orbit

View from above orbital plane
View from above orbital plane
View from above satellite
View from above satellite

Ground track
Ground track

The orbit is defined by the following mean orbital elements,

1 44725U          26145.33850095 +.00000000 +00000-0 +96782-3 0 00001
2 44725  53.1584 202.7349 0003992  17.7100 342.4049 15.52332672    08
Epoch (UTC): 25 May 2026 08:07:26
Eccentricity: 0.0003992
inclination: 53.1584°
perigee height: 407 km
apogee height: 413 km
right ascension of ascending node: 202.7349°
argument of perigee: 17.7100°
revolutions per day: 15.52332672
mean anomaly at epoch: 342.4049°

The dashed part of the orbit path shows where the satellite is in the earth's shadow,  

DLR